AirNav   Air Wisconsin pilot careers
 
 452 users online  

E81 Superior Municipal Airport
Superior, Arizona, USA

GOING TO SUPERIOR?


FAA INFORMATION EFFECTIVE 06 DECEMBER 2018

Location

FAA Identifier: E81
Lat/Long: 33-16-40.2020N / 111-07-37.4340W
33-16.670033N / 111-07.623900W
33.2778339 / -111.1270650
(estimated)
Elevation: 2646 ft. / 807 m (estimated)
Variation: 12E (1985)
From city: 2 miles SW of SUPERIOR, AZ
Time zone: UTC -7 (year round; does not observe DST)
Zip code: 85273

Airport Operations

Airport use: Open to the public
Activation date: 04/1945
Control tower: no
ARTCC: ALBUQUERQUE CENTER
FSS: PRESCOTT FLIGHT SERVICE STATION
NOTAMs facility: PRC (NOTAM-D service available)
Attendance: UNATNDD
Wind indicator: yes
Segmented circle: no

Airport Communications

CTAF/UNICOM: 122.95

Nearby radio navigation aids

VOR radial/distance  VOR name  Freq  Var
IWAr080/26.3WILLIE VORTAC113.3013E

 
NDB name  Hdg/Dist  Freq  Var  ID
CHANDLER077/34.240712ECHD -.-. .... -..

Airport Services

Airframe service: NONE
Powerplant service: NONE
Bottled oxygen: NONE
Bulk oxygen: NONE

Runway Information

Runway 4/22

Dimensions: 3250 x 75 ft. / 991 x 23 m
Surface: gravel, in fair condition
EAST 2000 FT GOOD COND; REMAINING RY FAIR.
Operational restrictions: MTN 4375 FT MSL LCTD 9,000 FT WEST OF RY 04.
RUNWAY 4  RUNWAY 22
Gradient: 2.5%2.5%
Traffic pattern: leftleft
Markings: nonenone
Runway end identifier lights: nono
Obstructions: 5 ft. brush, 25 ft. from runway, 90 ft. left and right of centerline, 5:1 slope to clear8 ft. tree, 24 ft. from runway, 30 ft. left of centerline, 3:1 slope to clear

Airport Ownership and Management from official FAA records

Ownership: Publicly-owned
Owner: TOWN OF SUPERIOR
PO BOX 218
SUPERIOR, AZ 85173
Phone 520-689-5752
Manager: TODD PRYOR
PO BOX 218
SUPERIOR, AZ 85173
Phone 520-689-5752

Airport Operational Statistics

Aircraft operations: 200/year *
100% transient general aviation
* for 12-month period ending 22 April 2017

Additional Remarks

OBSTNS BRUSH NE RWY; TERRAIN & SMELTER STACKS NE; HILLS & MTN SSW THRU SW OF ARPT.
AMGR RECOMMENDS LNDG UPHILL TO THE NE.
RY 04/22 BRUSH& TREES TO A HEIGHT OF 12 FT, 65 FT FM CNTRLN ON SOUTH SIDE, 45 FT FM CNTRLN ON NORTH SIDE.
EMERGENCY PHONE 520-689-5254 (POLICE).
LIVESTOCK ON ARPT.
RUNWAY 4 THRESHOLD MARKED BY PAINTED RUBBER TIRES, RUNWAY 22 THRESHOLD UNMARKED.

Instrument Procedures

There are no published instrument procedures at E81.

Some nearby airports with instrument procedures:

P13 - San Carlos Apache Airport (23 nm E)
P08 - Coolidge Municipal Airport (25 nm SW)
KIWA - Phoenix-Mesa Gateway Airport (27 nm W)
KFFZ - Falcon Field Airport (32 nm W)
KCHD - Chandler Municipal Airport (34 nm W)
 
Loc | Ops | Rwys | IFR | FBO | Links
Com | Nav | Svcs | Stats | Notes


 
Area around E81 (Superior Municipal Airport)
 
Road maps at: MapQuest Bing Google
 
Aerial photo
WARNING: Photo may not be current or correct
Aerial photo of E81 (Superior Municipal Airport)
Photo by Brandon Smith
Photo taken 11-Sep-2010
looking northeast.

Do you have a better or more recent aerial photo of Superior Municipal Airport that you would like to share? If so, please send us your photo.

 
Sectional chart

 
Airport distance calculator
Flying to Superior Municipal Airport? Find the distance to fly.

From to E81

Sunrise and sunset
Times for 18-Dec-2018
 Local
(UTC-7)
 Zulu
(UTC)
Morning civil twilight06:5613:56
Sunrise07:2414:24
Sunset17:1900:19
Evening civil twilight17:4600:46

Current date and time
Zulu (UTC)  19-Dec-2018 06:22:49
Local (UTC-7)  18-Dec-2018 23:22:49
 
METAR
KP08 
25nm SW 
190555Z AUTO 13007KT 10SM CLR 08/02 A3015 RMK AO2
KIWA 
26nm W 
190548Z 11006KT 20SM FEW150 08/00 A3014
KFFZ 
32nm W 
190554Z AUTO 04005KT 10SM CLR 11/02 A3012 RMK AO2 SLP188 T01110017 10189 20106 53008
KCHD 
35nm W 
190347Z 00000KT 10SM CLR 12/03 A3011 RMK LAST
KCGZ 
38nm SW 
190556Z AUTO 20003KT 10SM CLR 09/00 A3013 RMK AO2 SLP205 T00890000 10183 20078 51008 $
KA39 
43nm SW 
190555Z AUTO 18004KT 10SM CLR 09/00 A3017 RMK AO2
KSDL 
44nm NW 
190553Z AUTO 05003KT 10SM CLR 11/03 A3013 RMK AO2 SLP193 T01060028 10194 20106 51008
KPHX 
47nm W 
190551Z 11004KT 10SM CLR 13/03 A3010 RMK AO2 SLP186 T01280028 10200 20117 51009
TAF
KIWA 
26nm W 
190520Z 1906/2006 11006KT P6SM FEW250 FM191900 26005KT P6SM SKC FM200200 11005KT P6SM SKC AMD LTD TO CLD VIS AND WIND TIL 191300
NOTAMs
Click for the latest NOTAMs
NOTAMs are issued by the DoD/FAA and will open in a separate window not controlled by AirNav.

 

 
 

Would you like to see your business listed on this page?

 If your business provides an interesting product or service to pilots, flight crews, aircraft, or users of the Superior Municipal Airport, you should consider listing it here.  To start the listing process, click on the button below
 
Add a business
 

Other Pages about Superior Municipal Airport

Update a link
 
Copyright © AirNav, LLC. All rights reserved. Privacy Policy  Contact